Tracking 33057 objects as of 24-Jan-2026
HD Live streaming from Space Station
objects crossing your sky now

METEOR 2-6 DEB

Track METEOR 2-6 DEB now!
10-day predictions


NORAD ID: 45501
Int'l Code: 1980-073V
Perigee: 761.6 km
Apogee: 801.5 km
Inclination: 81.2 °
Period: 100.3 minutes
Semi major axis: 7152 km
RCS: Unknown
Launch date: September 9, 1980
Source: Commonwealth of Independent States (former USSR) (CIS)
Launch site: PLESETSK MISSILE AND SPACE COMPLEX (PKMTR)

Note: This is SATELLITE DEBRIS
Your satellite tracking list
Your tracking list is empty




NASA's NSSDC Master Catalog

Two Line Element Set (TLE):
1 45501U 80073V   26020.69884266  .00019742  00000-0  68570-2 0  9993
2 45501  81.2142 183.9548 0027950  11.2325 348.9477 14.35194794549131
Source of the keplerian elements: AFSPC